FW4655 Weather Reports


Display with metric or nautical units.
time (UTC)temp
F
wind
direction
speed
MPH
gust
MPH
rain 1hr
in
rain 24hr
in
rain mn
in
humidity
%
barometer
mb
20260905161010 57 150 0.0 2.0 0.00 0.38 0.00 91 1018.5
20260905160509 56 78 0.0 2.0 0.00 0.38 0.00 91 1018.6
20260905160027 56 78 0.0 2.0 0.00 0.38 0.00 91 1018.6
20260905155514 56 108 0.0 2.0 0.00 0.38 0.00 92 1018.6
20260905155010 56 106 1.0 3.0 0.00 0.38 0.00 93 1018.5
20260905154544 55 98 1.0 3.0 0.00 0.39 0.00 93 1018.5
20260905154012 55 233 0.0 3.0 0.00 0.39 0.00 93 1018.5
20260905153515 55 119 0.0 2.0 0.00 0.39 0.00 93 1018.6
20260905153007 55 64 0.0 0.0 0.00 0.39 0.00 93 1018.6
20260905152504 55 97 0.0 2.0 0.00 0.39 0.00 94 1018.6
20260905152004 55 157 0.0 2.0 0.00 0.39 0.00 94 1018.6
20260905151511 55 97 0.0 2.0 0.00 0.39 0.00 94 1018.5
20260905151007 54 120 0.0 0.0 0.00 0.39 0.00 94 1018.5
20260905150507 54 130 0.0 1.0 0.00 0.39 0.00 94 1018.5
20260905150012 54 214 0.0 1.0 0.00 0.39 0.00 94 1018.6
20260905145509 54 229 0.0 0.0 0.00 0.39 0.00 94 1018.5
20260905145011 54 229 0.0 0.0 0.00 0.39 0.00 94 1018.5
20260905144526 53 165 0.0 0.0 0.00 0.39 0.00 94 1018.5
20260905144012 53 165 0.0 0.0 0.00 0.39 0.00 94 1018.5
20260905143514 53 165 0.0 0.0 0.00 0.39 0.00 94 1018.5
20260905143026 53 165 0.0 0.0 0.00 0.39 0.00 93 1018.4
20260905142515 53 165 0.0 0.0 0.00 0.39 0.00 93 1018.4
20260905142019 53 165 0.0 0.0 0.00 0.39 0.00 93 1018.4
20260905141531 53 165 0.0 0.0 0.00 0.39 0.00 93 1018.3
20260905141006 53 165 0.0 0.0 0.00 0.39 0.00 93 1018.4
20260905140503 53 139 0.0 0.0 0.00 0.39 0.00 93 1018.4
20260905140010 53 139 0.0 0.0 0.00 0.39 0.00 93 1018.4
20260905135509 53 139 0.0 0.0 0.00 0.39 0.00 93 1018.3
20260905135008 53 139 0.0 0.0 0.00 0.39 0.00 93 1018.4
20260905134514 53 139 0.0 0.0 0.00 0.39 0.00 93 1018.4
20260905134010 53 85 0.0 0.0 0.00 0.39 0.00 93 1018.4
20260905133512 53 84 0.0 0.0 0.00 0.39 0.00 93 1018.2
20260905133020 53 84 0.0 0.0 0.00 0.39 0.00 93 1018.2
20260905132511 53 85 0.0 0.0 0.00 0.39 0.00 93 1018.3
20260905132015 53 85 0.0 0.0 0.00 0.39 0.00 93 1018.3
20260905131525 53 85 0.0 0.0 0.00 0.39 0.00 93 1018.2
20260905131016 53 84 0.0 1.0 0.00 0.39 0.00 93 1018.1
20260905130520 53 84 0.0 1.0 0.00 0.39 0.00 93 1018.0
20260905130029 53 84 0.0 0.0 0.00 0.39 0.00 93 1017.9
20260905125516 53 84 0.0 0.0 0.00 0.39 0.00 93 1017.9
20260905125008 53 84 0.0 1.0 0.00 0.39 0.00 93 1017.9
20260905124512 53 84 0.0 1.0 0.00 0.39 0.00 93 1017.8
20260905124007 53 84 0.0 0.0 0.00 0.39 0.00 93 1017.8
20260905123510 53 119 0.0 0.0 0.00 0.39 0.00 93 1017.8
20260905123028 53 119 0.0 0.0 0.00 0.39 0.00 93 1017.9
20260905122516 53 119 0.0 0.0 0.00 0.39 0.00 93 1017.9
20260905122012 53 119 0.0 0.0 0.00 0.39 0.00 93 1017.9
20260905121522 54 119 0.0 0.0 0.00 0.39 0.00 93 1017.8
20260905121012 54 121 0.0 0.0 0.00 0.39 0.00 93 1017.8
20260905120514 54 104 0.0 0.0 0.00 0.39 0.00 93 1017.8
20260905120030 54 104 0.0 0.0 0.00 0.39 0.00 93 1017.8
20260905115516 54 103 0.0 0.0 0.00 0.39 0.00 93 1017.8
20260905115022 54 103 0.0 0.0 0.00 0.40 0.00 93 1017.8
20260905114529 54 103 0.0 0.0 0.00 0.40 0.00 93 1017.8
20260905114017 54 103 0.0 0.0 0.00 0.40 0.00 93 1017.8
20260905113522 54 103 0.0 0.0 0.00 0.40 0.00 93 1017.7
20260905113013 54 103 0.0 0.0 0.00 0.41 0.00 93 1017.8
20260905112508 54 103 0.0 0.0 0.00 0.41 0.00 93 1017.8
20260905112008 54 103 0.0 0.0 0.00 0.41 0.00 93 1017.7
20260905111517 54 103 0.0 0.0 0.00 0.41 0.00 93 1017.7
20260905111010 54 103 0.0 0.0 0.00 0.41 0.00 93 1017.7
20260905110517 54 103 0.0 0.0 0.00 0.41 0.00 93 1017.7
20260905110024 54 103 0.0 0.0 0.00 0.41 0.00 93 1017.7
20260905105515 54 103 0.0 0.0 0.00 0.42 0.00 93 1017.7
20260905105020 54 103 0.0 0.0 0.00 0.42 0.00 93 1017.7
20260905104535 54 103 0.0 0.0 0.00 0.42 0.00 93 1017.7
20260905104020 54 103 0.0 0.0 0.00 0.42 0.00 93 1017.7
20260905103518 54 103 0.0 0.0 0.00 0.42 0.00 93 1017.7
20260905103032 54 103 0.0 0.0 0.00 0.42 0.00 93 1017.8
20260905102515 54 103 0.0 0.0 0.00 0.42 0.00 93 1017.8
20260905102014 55 103 0.0 0.0 0.00 0.42 0.00 93 1017.8
20260905101535 55 103 0.0 0.0 0.00 0.42 0.00 93 1017.9
20260905101018 55 103 0.0 0.0 0.00 0.42 0.00 93 1017.9
20260905100510 55 103 0.0 0.0 0.00 0.42 0.00 93 1017.8
20260905100020 55 103 0.0 0.0 0.00 0.42 0.00 93 1017.8
20260905095514 55 103 0.0 0.0 0.00 0.42 0.00 93 1017.8
20260905095013 55 103 0.0 0.0 0.00 0.42 0.00 93 1017.8
20260905094523 55 103 0.0 0.0 0.00 0.42 0.00 93 1017.8
20260905094015 55 103 0.0 0.0 0.00 0.42 0.00 93 1017.8
20260905093515 55 103 0.0 0.0 0.00 0.42 0.00 93 1017.7
20260905093027 54 102 0.0 0.0 0.00 0.42 0.00 93 1017.7
20260905092516 55 102 0.0 0.0 0.00 0.42 0.00 93 1017.8
20260905092016 55 103 0.0 0.0 0.00 0.42 0.00 93 1017.8
20260905091508 55 102 0.0 0.0 0.00 0.42 0.00 93 1017.7
20260905091006 54 102 0.0 0.0 0.00 0.42 0.00 93 1017.8
20260905090509 54 102 0.0 0.0 0.00 0.42 0.00 93 1017.8
20260905090003 54 102 0.0 0.0 0.00 0.42 0.00 93 1017.8
20260905085503 54 102 0.0 0.0 0.00 0.42 0.00 93 1017.8
20260905085003 54 102 0.0 0.0 0.00 0.42 0.00 93 1017.7
20260905084510 54 102 0.0 0.0 0.00 0.42 0.00 93 1017.7
20260905084002 54 102 0.0 0.0 0.00 0.42 0.00 92 1017.7
20260905083503 54 102 0.0 0.0 0.00 0.42 0.00 92 1017.6
20260905083004 54 102 0.0 0.0 0.00 0.42 0.00 92 1017.6
20260905082503 55 102 0.0 0.0 0.00 0.42 0.00 92 1017.5
20260905082003 55 102 0.0 0.0 0.00 0.42 0.00 93 1017.5
20260905081508 55 102 0.0 0.0 0.00 0.42 0.00 92 1017.5
20260905081009 55 102 0.0 0.0 0.00 0.42 0.00 92 1017.5
20260905080506 55 102 0.0 0.0 0.00 0.42 0.00 92 1017.5
20260905080022 55 102 0.0 0.0 0.00 0.42 0.00 92 1017.5
20260905075510 55 102 0.0 0.0 0.00 0.42 0.00 92 1017.5
20260905075009 55 105 0.0 0.0 0.00 0.42 0.00 92 1017.5
20260905074514 55 105 0.0 0.0 0.00 0.42 0.00 92 1017.5
20260905074003 55 105 0.0 0.0 0.00 0.42 0.00 92 1017.5
20260905073503 55 105 0.0 0.0 0.00 0.42 0.00 92 1017.5
20260905073015 55 105 0.0 0.0 0.00 0.42 0.00 92 1017.5
20260905072503 55 105 0.0 0.0 0.00 0.42 0.00 92 1017.5
20260905072003 55 105 0.0 0.0 0.00 0.42 0.00 92 1017.5
20260905071503 55 105 0.0 0.0 0.00 0.42 0.00 92 1017.5
20260905071006 55 105 0.0 0.0 0.00 0.42 0.00 92 1017.5
20260905070509 55 105 0.0 0.0 0.00 0.42 0.00 92 1017.4
20260905070007 55 106 0.0 0.0 0.00 0.42 0.00 92 1017.3
20260905065505 55 106 0.0 0.0 0.00 0.42 0.42 92 1017.2
20260905065009 55 106 0.0 0.0 0.00 0.42 0.42 92 1017.2
20260905064514 55 106 0.0 0.0 0.00 0.42 0.42 92 1017.1
20260905064013 55 106 0.0 0.0 0.00 0.42 0.42 92 1017.2
20260905063509 55 106 0.0 1.0 0.00 0.42 0.42 92 1017.1
20260905063018 55 82 0.0 1.0 0.00 0.42 0.42 92 1017.0
20260905062510 55 116 0.0 1.0 0.00 0.42 0.42 92 1017.0
20260905062007 55 147 0.0 0.0 0.00 0.42 0.42 92 1016.9
20260905061504 55 8 0.0 1.0 0.00 0.42 0.42 92 1016.8
20260905061003 55 8 0.0 1.0 0.00 0.42 0.42 92 1016.8
20260905060502 55 8 0.0 0.0 0.00 0.42 0.42 92 1016.8
20260905060006 55 8 0.0 0.0 0.00 0.42 0.42 92 1016.8
20260905055506 55 8 0.0 0.0 0.00 0.42 0.42 92 1016.8
20260905055006 55 8 0.0 0.0 0.00 0.42 0.42 92 1016.9
20260905054511 55 8 0.0 0.0 0.00 0.42 0.42 92 1016.9
20260905054008 55 8 0.0 0.0 0.00 0.42 0.42 92 1016.8
20260905053511 55 8 0.0 0.0 0.00 0.42 0.42 92 1016.9
20260905053020 55 8 0.0 0.0 0.00 0.42 0.42 92 1016.8
20260905052511 55 8 0.0 2.0 0.00 0.42 0.42 92 1016.8
20260905052013 55 8 0.0 2.0 0.00 0.42 0.42 92 1016.8
20260905051532 55 10 0.0 2.0 0.00 0.42 0.42 92 1016.8
20260905051013 55 4 0.0 1.0 0.00 0.42 0.42 92 1016.8
20260905050512 55 45 0.0 0.0 0.00 0.42 0.42 92 1016.8
20260905050022 55 41 0.0 0.0 0.00 0.42 0.42 91 1016.8
20260905045502 55 100 0.0 0.0 0.00 0.42 0.42 91 1016.8
20260905045006 55 100 0.0 1.0 0.00 0.42 0.42 91 1016.8
20260905044515 55 98 0.0 1.0 0.00 0.42 0.42 92 1016.7
20260905044005 55 98 0.0 0.0 0.00 0.42 0.42 91 1016.7
20260905043508 55 98 0.0 0.0 0.00 0.42 0.42 91 1016.8
20260905043012 55 98 0.0 0.0 0.00 0.42 0.42 91 1016.7
20260905042511 55 99 0.0 0.0 0.00 0.42 0.42 91 1016.7
20260905042010 55 99 0.0 0.0 0.00 0.42 0.42 91 1016.7
20260905041516 55 99 0.0 1.0 0.00 0.42 0.42 91 1016.7
20260905041013 55 99 0.0 1.0 0.00 0.42 0.42 91 1016.7
20260905040510 55 97 0.0 0.0 0.00 0.42 0.42 91 1016.6
20260905040026 55 97 0.0 0.0 0.00 0.42 0.42 90 1016.6
20260905035512 56 97 0.0 1.0 0.00 0.42 0.42 91 1016.5
20260905035015 56 97 0.0 1.0 0.00 0.42 0.42 91 1016.4
20260905034532 56 149 0.0 0.0 0.00 0.42 0.42 90 1016.3
20260905034015 56 149 0.0 0.0 0.00 0.42 0.42 90 1016.3
20260905033503 56 149 0.0 0.0 0.00 0.42 0.42 90 1016.2
20260905033008 56 149 0.0 0.0 0.00 0.42 0.42 89 1016.2
20260905032508 56 149 0.0 0.0 0.00 0.42 0.42 89 1016.3
20260905032008 56 149 0.0 1.0 0.00 0.42 0.42 89 1016.3
20260905031513 57 151 0.0 1.0 0.00 0.42 0.42 89 1016.2
20260905031009 57 195 0.0 1.0 0.00 0.42 0.42 89 1016.2
20260905030515 57 121 0.0 0.0 0.00 0.42 0.42 89 1016.1
20260905030030 57 158 0.0 0.0 0.00 0.42 0.42 89 1016.0
20260905025516 57 141 0.0 0.0 0.00 0.42 0.42 89 1016.1
20260905025013 58 145 0.0 0.0 0.00 0.42 0.42 88 1016.0
20260905024526 58 137 0.0 0.0 0.00 0.42 0.42 88 1015.9
20260905024016 58 214 0.0 0.0 0.00 0.42 0.42 88 1016.0
20260905023514 58 214 0.0 1.0 0.00 0.42 0.42 87 1016.0
20260905023034 58 144 0.0 1.0 0.00 0.42 0.42 87 1016.0
20260905022519 59 131 0.0 0.0 0.00 0.42 0.42 87 1016.1
20260905022016 59 130 0.0 0.0 0.00 0.42 0.42 87 1016.0
20260905021508 59 121 0.0 0.0 0.00 0.42 0.42 87 1016.0
20260905021009 59 157 0.0 1.0 0.00 0.42 0.42 86 1016.0
20260905020507 59 224 0.0 3.0 0.00 0.42 0.42 86 1016.0
20260905020014 59 207 0.0 3.0 0.00 0.42 0.42 86 1015.9
20260905015512 59 193 0.0 2.0 0.00 0.42 0.42 85 1015.8
20260905015013 60 231 0.0 2.0 0.00 0.42 0.42 86 1015.8
20260905014523 60 217 0.0 2.0 0.00 0.42 0.42 86 1015.8
20260905014012 60 226 0.0 2.0 0.00 0.42 0.42 86 1015.7
20260905013519 60 238 0.0 1.0 0.00 0.42 0.42 85 1015.7
20260905013026 60 181 0.0 1.0 0.00 0.42 0.42 85 1015.4
20260905012516 60 193 0.0 1.0 0.00 0.42 0.42 85 1015.4
20260905012017 60 241 0.0 3.0 0.00 0.42 0.42 85 1015.4
20260905011530 60 226 0.0 3.0 0.00 0.42 0.42 85 1015.4
20260905011016 60 208 0.0 3.0 0.00 0.42 0.42 85 1015.4
20260905010518 60 259 0.0 1.0 0.00 0.42 0.42 85 1015.4
20260905010032 61 209 0.0 1.0 0.00 0.42 0.42 86 1015.4
20260905005509 61 236 0.0 1.0 0.00 0.42 0.42 86 1015.3
20260905005011 61 235 0.0 0.0 0.00 0.42 0.42 86 1015.4
20260905004518 61 259 0.0 0.0 0.00 0.42 0.42 86 1015.4
20260905004011 60 126 0.0 0.0 0.00 0.42 0.42 86 1015.3
20260905003510 61 225 0.0 1.0 0.00 0.42 0.42 86 1015.4
20260905003025 61 225 0.0 1.0 0.00 0.42 0.42 86 1015.3
20260905002512 60 244 0.0 1.0 0.00 0.42 0.42 86 1015.3
20260905002016 60 318 0.0 0.0 0.00 0.42 0.42 87 1015.2
20260905001530 60 318 0.0 0.0 0.00 0.42 0.42 87 1015.1
20260905001016 60 354 0.0 0.0 0.00 0.42 0.42 88 1015.1
20260905000518 60 354 0.0 0.0 0.00 0.42 0.42 89 1015.2
20260905000036 60 1 0.0 1.0 0.00 0.42 0.42 89 1015.2
20260904235520 60 321 0.0 2.0 0.00 0.42 0.42 89 1015.3
20260904235017 60 336 0.0 2.0 0.00 0.42 0.42 90 1015.2
20260904234541 60 91 0.0 1.0 0.00 0.42 0.42 89 1015.4
20260904234016 60 173 0.0 1.0 0.00 0.42 0.42 90 1015.4
20260904233511 59 202 0.0 1.0 0.01 0.42 0.42 90 1015.4
20260904233018 59 176 0.0 1.0 0.01 0.42 0.42 90 1015.3
20260904232513 59 141 0.0 1.0 0.01 0.42 0.42 91 1015.2
20260904232016 59 82 0.0 2.0 0.01 0.43 0.42 92 1015.0
20260904231527 58 79 0.0 2.0 0.02 0.43 0.42 91 1015.1
20260904231015 58 125 0.0 1.0 0.02 0.43 0.42 91 1015.1
20260904230516 57 113 0.0 1.0 0.02 0.43 0.42 91 1015.1
20260904230029 57 91 0.0 1.0 0.02 0.43 0.42 90 1015.1
20260904225522 57 146 0.0 1.0 0.02 0.43 0.42 91 1015.1
20260904225017 57 77 0.0 1.0 0.02 0.43 0.42 91 1015.1
20260904224539 56 104 0.0 1.0 0.03 0.43 0.42 90 1015.2
20260904224017 56 73 0.0 1.0 0.19 0.43 0.42 90 1015.3
20260904223516 56 165 0.0 0.0 0.30 0.42 0.41 89 1015.3
20260904223033 56 141 0.0 0.0 0.34 0.42 0.41 90 1015.3
20260904222514 56 212 0.0 1.0 0.37 0.42 0.41 89 1015.2
20260904222020 56 238 0.0 1.0 0.37 0.42 0.41 89 1015.2
20260904221521 56 238 0.0 1.0 0.36 0.41 0.40 88 1015.2
20260904221014 56 238 0.0 0.0 0.36 0.41 0.40 87 1015.1
20260904220514 56 238 0.0 1.0 0.36 0.41 0.40 87 1015.1
20260904220048 56 238 0.0 4.0 0.36 0.41 0.40 86 1015.2
20260904215514 56 251 0.0 4.0 0.36 0.41 0.40 84 1015.1
20260904215013 56 235 1.0 7.0 0.36 0.41 0.40 81 1015.1
20260904214535 57 68 1.0 9.0 0.35 0.40 0.39 76 1014.9
20260904214018 59 281 4.0 9.0 0.19 0.24 0.23 74 1015.3
20260904213514 60 272 4.0 11.0 0.07 0.12 0.11 76 1015.2
20260904213034 62 294 5.0 11.0 0.03 0.08 0.07 74 1015.0
20260904212522 65 278 2.0 10.0 0.00 0.05 0.04 68 1014.6
20260904212018 66 334 3.0 10.0 0.00 0.05 0.04 64 1014.2
20260904211522 67 316 3.0 8.0 0.00 0.05 0.04 60 1014.2
20260904211003 67 1 1.0 6.0 0.00 0.05 0.04 59 1014.0
20260904210503 68 348 1.0 6.0 0.00 0.05 0.04 59 1014.0
20260904210004 68 85 2.0 6.0 0.00 0.05 0.04 60 1013.9
20260904205504 68 46 1.0 6.0 0.00 0.05 0.04 61 1013.9
20260904205003 67 55 3.0 6.0 0.00 0.05 0.04 61 1013.9
20260904204504 66 52 4.0 7.0 0.00 0.05 0.04 62 1013.9
20260904204004 67 314 3.0 7.0 0.00 0.05 0.04 61 1013.9
20260904203506 67 49 2.0 9.0 0.00 0.05 0.04 63 1013.8
20260904203009 66 57 1.0 9.0 0.00 0.05 0.04 63 1013.8
20260904202508 67 45 2.0 9.0 0.00 0.05 0.04 62 1013.8
20260904202009 66 37 1.0 9.0 0.00 0.05 0.04 62 1013.7
20260904201514 67 23 2.0 10.0 0.00 0.05 0.04 63 1013.8
20260904201011 67 20 7.0 10.0 0.00 0.05 0.04 61 1013.8
20260904200509 68 80 2.0 7.0 0.00 0.05 0.04 58 1013.8
20260904200021 67 98 2.0 6.0 0.00 0.05 0.04 58 1013.8
20260904195512 67 306 2.0 4.0 0.00 0.05 0.04 58 1013.9
20260904195003 66 13 1.0 4.0 0.00 0.05 0.04 61 1013.9
20260904194504 65 99 1.0 4.0 0.00 0.05 0.04 60 1014.0
20260904194005 65 94 0.0 4.0 0.00 0.05 0.04 62 1014.0
20260904193504 65 75 1.0 4.0 0.00 0.05 0.04 61 1014.1
20260904193009 65 64 1.0 4.0 0.00 0.05 0.04 62 1014.1
20260904192505 65 70 0.0 4.0 0.00 0.05 0.04 62 1014.1
20260904192005 66 96 2.0 5.0 0.00 0.05 0.04 62 1014.1
20260904191511 65 86 0.0 5.0 0.00 0.05 0.04 63 1014.1
20260904191007 66 65 2.0 5.0 0.00 0.05 0.04 62 1014.2
20260904190509 66 100 0.0 6.0 0.00 0.05 0.04 62 1014.2
20260904190017 66 20 3.0 6.0 0.00 0.05 0.04 63 1014.2
20260904185512 67 95 3.0 4.0 0.00 0.05 0.04 61 1014.2
20260904185010 66 117 0.0 4.0 0.00 0.06 0.04 62 1014.2
20260904184527 65 223 2.0 4.0 0.00 0.06 0.04 63 1014.2
20260904184013 65 326 1.0 3.0 0.00 0.06 0.04 63 1014.1
20260904183516 65 290 0.0 3.0 0.00 0.06 0.04 63 1014.1
20260904183004 65 289 0.0 1.0 0.00 0.06 0.04 64 1014.1
20260904182503 64 289 0.0 4.0 0.00 0.06 0.04 64 1014.1
20260904182010 64 246 0.0 4.0 0.00 0.06 0.04 64 1014.2
20260904181506 64 178 0.0 3.0 0.00 0.06 0.04 65 1014.1
20260904181008 64 101 0.0 0.0 0.00 0.06 0.04 66 1014.1
20260904180507 64 144 0.0 3.0 0.00 0.06 0.04 66 1014.1
20260904180011 64 89 0.0 3.0 0.00 0.06 0.04 65 1014.1
20260904175509 64 68 0.0 3.0 0.00 0.06 0.04 67 1014.1
20260904175010 64 110 0.0 3.0 0.00 0.06 0.04 65 1014.1
20260904174516 63 161 1.0 3.0 0.00 0.06 0.04 70 1014.1
20260904174014 62 100 0.0 3.0 0.00 0.06 0.04 71 1014.0
20260904173512 62 39 1.0 3.0 0.00 0.06 0.04 73 1014.0
20260904173036 62 77 0.0 3.0 0.00 0.06 0.04 76 1013.9
20260904172512 62 72 0.0 3.0 0.00 0.06 0.04 75 1014.0
20260904172017 61 151 0.0 3.0 0.00 0.06 0.04 78 1014.0
20260904171528 60 78 1.0 4.0 0.00 0.06 0.04 78 1014.0
20260904171003 60 166 2.0 5.0 0.00 0.06 0.04 81 1014.0
20260904170509 60 150 2.0 5.0 0.00 0.06 0.04 81 1014.0
20260904170013 59 169 0.0 2.0 0.00 0.06 0.04 83 1013.9
20260904165506 59 150 0.0 4.0 0.00 0.06 0.04 84 1013.9
20260904165008 59 140 1.0 4.0 0.00 0.06 0.04 83 1013.9
20260904164516 58 209 0.0 1.0 0.01 0.06 0.04 84 1013.9
20260904164009 58 109 0.0 1.0 0.01 0.06 0.04 85 1013.8
20260904163508 57 80 0.0 3.0 0.01 0.06 0.04 86 1013.7
20260904163019 57 79 0.0 3.0 0.01 0.06 0.04 85 1013.7
20260904162517 57 174 0.0 3.0 0.01 0.06 0.04 86 1013.7
20260904162014 57 87 0.0 3.0 0.01 0.06 0.04 86 1013.7
20260904161530 56 200 0.0 2.0 0.01 0.06 0.04 86 1013.6